{"data":{"norad_id":61669,"intl_designator":"2024-193J","name":"STARLINK-32400","alt_names":[],"object_type":"PAYLOAD","status":"ACTIVE","operator":null,"country":"US","launch_date":"2024-10-26","launch_site_code":"AFETR","launch_vehicle":null,"mission":null,"orbit_class":"UNKNOWN","rcs_meters":null,"size_class":null,"mass_kg":null,"dimensions":null,"purposes":["comms"],"wikipedia_slug":null,"has_3d_model":false,"image_url":null,"decayed_at":null,"tle_current":{"epoch":"2026-05-25T03:29:25.380960Z","epoch_age_seconds":59157,"freshness":"FRESH","line1":"1 61669U 24193J   26145.14543265  .00000021  00000+0  12839-4 0  9994","line2":"2 61669  53.1600  93.6581 0001207  89.7987 270.3152 15.30196760 88267","mean_motion":15.3019676,"eccentricity":0.0001207,"inclination_deg":53.16,"raan_deg":93.6581,"arg_perigee_deg":89.7987,"mean_anomaly_deg":270.3152,"bstar":1.2839e-5,"rev_number":8826,"period_min":94.105544962728,"perigee_km":474.39754272994,"apogee_km":476.05194425482,"semimajor_km":6853.3617434924,"source":"CELESTRAK","updated_at":"2026-05-25T13:38:19.434138Z"}}}